Home > Weather > Titisee-Neustadt > Past weeks

Flag for Germany Past Weather in Titisee-Neustadt, Baden-Württemberg, Germany — Yesterday and Last 2 Weeks

Now
73 °F

Overcast.


Feels Like: 76 °F
Forecast: 51 / 69 °F
Wind: 2 mph from Southwest

Location: Freiburg

Current Time: Jul 27, 2016 at 9:25:55 PM

Latest Report: Jul 27, 2016 at 9:00 PM


Visibility: 34 mi

Pressure: 30.04 "Hg (27.35 "Hg at 813m altitude)

Humidity: 63%

Dew Point: 59 °F

Location of Titisee-NeustadtLocation

Past Weather in Titisee-Neustadt — Graph

°F

Titisee-Neustadt Temperature Yesterday

Maximum temperature yesterday: 84 °F (at 4:00 PM)
Minimum temperature yesterday: 58 °F (at 6:00 AM)
Average temperature yesterday: 71 °F

High & Low Weather Summary for the Past Weeks

 TemperatureHumidityPressure
High93 °F (Jul 20, 6:00 PM)99% (Jul 15, 6:00 AM)30.36 "Hg (Jul 15, 6:00 AM)
Low46 °F (Jul 16, 6:00 AM)27% (Jul 20, 4:00 PM)29.87 "Hg (Jul 20, 7:00 PM)
Average68 °F73%30.10 "Hg
* Reported Jul 12 7:00 PM — Jul 27 7:00 PM, Titisee-Neustadt, Weather by CustomWeather, © 2016

Note: Actual official high and low records may vary slightly from our data, if they occured in-between our weather recording intervals... More about our weather records

Advertising

Titisee-Neustadt Weather History for the Previous 24 Hours

Scroll right to see more
 ConditionsComfort  
Time TempWeatherWind HumidityBarometerVisibility
7:00 PM
Wed, Jul 27
77 °FScattered clouds.2 mph51%30.01 "Hg43 mi
6:00 PM78 °FPassing clouds.2 mph48%30.00 "Hg37 mi
4:00 PM78 °FPassing clouds.2 mph49%30.01 "Hg34 mi
3:00 PM77 °FPassing clouds.2 mph52%30.03 "Hg34 mi
1:00 PM76 °FPassing clouds.3 mph55%30.05 "Hg37 mi
12:00 PM74 °FPassing clouds.2 mph60%30.07 "Hg31 mi
10:00 AM71 °FPassing clouds.2 mph67%30.08 "Hg28 mi
9:00 AM69 °FOvercast.2 mph77%30.08 "Hg34 mi
7:00 AM64 °FOvercast.1 mph90%30.08 "Hg22 mi
6:00 AM61 °FPartly sunny.No wind96%30.08 "Hg19 mi
4:00 AM62 °FClear.1 mph92%30.08 "Hg19 mi
3:00 AM64 °FPassing clouds.1 mph91%30.08 "Hg28 mi
1:00 AM65 °FOvercast.1 mph89%30.09 "Hg31 mi
12:00 AM67 °FPassing clouds.1 mph82%30.09 "Hg40 mi
10:00 PM
Tue, Jul 26
71 °FPassing clouds.1 mph72%30.08 "Hg40 mi
9:00 PM73 °FSunny.2 mph70%30.07 "Hg43 mi
Weather by CustomWeather, © 2016

See weather overviewHow to use our weather pages